Hourly Weather Roundup
Issued by NWS Central Illinois

Home | Current Version | Previous Version | Text Only | Print | Product List | Glossary On
Versions: 1 2 3 4 5 6 7 8 9 10 11 12 13 14 15 16 17 18 19 20 21 22 23 24 25 26 27 28 29 30 31 32 33 34 35 36 37 38 39 40 41 42 43 44 45 46 47 48 49 50
000
NZUS43 KILX 211610
HWRILX

Area Weather Roundup
National Weather Service Lincoln IL
1100 AM CDT WED JUN 21 2017

NOTE:  "FAIR" indicates few or no clouds below 12,000 feet, with
       no sigificant weather and/or obstructions to visibility.


CITY           SKY/WX    TMP DP  RH WIND       PRES   REMARKS
Bloomington    MOSUNNY   76  66  71 E8        29.99S
Champaign      SUNNY     80  67  64 CALM      29.98R HX  82
Danville       SUNNY     75  66  71 SW5       29.96R
Decatur        SUNNY     81  69  67 NE6       29.97R HX  84
Effingham      SUNNY     85  71  63 W6        29.98S HX  89
Flora          SUNNY     87  69  55 SW7       29.98S HX  91
Galesburg      PTSUNNY   70  62  75 CALM      30.00F
Jacksonville   SUNNY     80  70  72 CALM      29.96R HX  83
Lacon          SUNNY     77  62  59 SE7       29.97S
Lawrenceville  SUNNY     88  66  48 SW9       29.98R HX  90
Litchfield     SUNNY     84  71  63 W7        29.97S HX  89
$$


CITY           SKY/WX    TMP DP  RH WIND       PRES   REMARKS
Lincoln        SUNNY     80  69  69 NE3       29.96F HX  82
Macomb         CLOUDY    73  64  74 E3        30.00F
Mattoon        SUNNY     82  71  69 VRB5      29.96S HX  86
Mt Carmel AP   SUNNY     86  66  50 SW10      29.97F HX  88
Olney-Noble AP SUNNY     85  69  60 W6        29.98S HX  89
Paris AP       SUNNY     79  69  71 CALM      29.98S HX  82
Peoria         HVY RAIN  72  66  81 W3        30.00R VSB 3/4
Pontiac        SUNNY     75  64  69 SE7       29.99S
Rantoul        SUNNY     80  66  63 E3        29.98S HX  82
Robinson       SUNNY     83  68  58 W6        29.98R HX  86
Springfield    SUNNY     83  70  64 CALM      29.95F HX  87
Taylorville    SUNNY     82  70  67 W7        29.97S HX  86
$$

...REGIONAL REPORTS...


CITY           SKY/WX    TMP DP  RH WIND       PRES   REMARKS
Chicago O`Hare PTSUNNY   74  51  44 E8        29.99R
Kankakee       SUNNY     74  59  61 SE6       30.00S
Moline         CLOUDY    73  56  54 S7        29.96F
Mount Sterling CLOUDY    74  69  83 NE7       29.96F
Mount Vernon   SUNNY     88  68  51 SW7       29.99S HX  91
Pittsfield     SUNNY     85  70  59 N7        29.96S HX  90
Quincy         SUNNY     79  71  76 NE9       29.95F HX  82
Rockford       PTSUNNY   74  55  51 SE7       29.99F
$$


CITY           SKY/WX    TMP DP  RH WIND       PRES   REMARKS
Burlington     CLOUDY    69  66  90 SE8       29.95F
Cedar Rapids   CLOUDY    68  60  75 SE10      29.93F
Des Moines     PTSUNNY   75  65  70 NE13      29.93R
Kirksville     SUNNY     79  70  74 E8        29.95S HX  82
Ottumwa        PTSUNNY   71  64  78 SE10      29.92F
St Louis       MOSUNNY   90  68  48 S7        29.97S HX  94
$$


CITY           SKY/WX    TMP DP  RH WIND       PRES   REMARKS
Terre Haute    SUNNY     82  66  58 SW5       29.97S HX  84
Evansville     MOSUNNY   88  62  41 SW16      30.00S HX  88
Indianapolis   MOSUNNY   81  66  60 W8        29.97R HX  83
Lafayette      SUNNY     75  65  70 VRB3      29.97S
Madison        CLOUDY    71  57  61 SW7       29.98R
Milwaukee      CLOUDY    73  56  54 SE13      29.98R
$$





USA.gov is the U.S. government's official web portal to all federal, state and local government web resources and services.